• In Uzbekistan
  • List of Countries
  • For 7 days
  • Water Temperature
  • Satellite Maps
  • Weather Map
  • Weather Widgets
  • user-avatar
    Login

    Hourly Weather Iraklion

    Today, 23 August, Wednesday

    Time Temperature Precipitation Wind Pressure Humidity
    00:00 +27°C° 0 mm 2 mps 752 mmHg 67%
    01:00 +27°C° 0 mm 2 mps 752 mmHg 68%
    02:00 +26°C° 0 mm 3 mps 752 mmHg 70%
    03:00 +26°C° 0 mm 3 mps 752 mmHg 71%
    04:00 +26°C° 0 mm 3 mps 752 mmHg 72%
    05:00 +25°C° 0 mm 4 mps 752 mmHg 73%
    06:00 +26°C° 0 mm 4 mps 752 mmHg 69%
    07:00 +27°C° 0 mm 4 mps 752 mmHg 65%
    08:00 +28°C° 0 mm 3 mps 753 mmHg 60%
    09:00 +29°C° 0 mm 3 mps 753 mmHg 56%
    10:00 +30°C° 0 mm 3 mps 753 mmHg 52%
    11:00 +31°C° 0 mm 3 mps 754 mmHg 47%
    12:00 +33°C° 0 mm 3 mps 754 mmHg 47%
    13:00 +33°C° 0 mm 3 mps 754 mmHg 46%
    14:00 +34°C° 0 mm 3 mps 754 mmHg 42%
    15:00 +33°C° 0 mm 4 mps 754 mmHg 42%
    16:00 +33°C° 0 mm 4 mps 754 mmHg 42%
    17:00 +33°C° 0 mm 4 mps 754 mmHg 41%
    18:00 +30°C° 0 mm 4 mps 754 mmHg 44%
    19:00 +29°C° 0 mm 4 mps 754 mmHg 46%
    20:00 +28°C° 0 mm 4 mps 754 mmHg 48%
    21:00 +27°C° 0 mm 4 mps 754 mmHg 51%
    22:00 +27°C° 0 mm 4 mps 754 mmHg 53%
    23:00 +26°C° 0 mm 5 mps 754 mmHg 56%

    Tomorrow, 24 August, Thursday

    Time Temperature Precipitation Wind Pressure Humidity
    00:00 +26°C° 0 mm 5 mps 754 mmHg 57%
    01:00 +25°C° 0 mm 5 mps 754 mmHg 58%
    02:00 +25°C° 0 mm 5 mps 754 mmHg 59%
    03:00 +25°C° 0 mm 5 mps 754 mmHg 59%
    04:00 +24°C° 0 mm 6 mps 754 mmHg 60%
    05:00 +23°C° 0 mm 6 mps 753 mmHg 60%
    06:00 +24°C° 0 mm 6 mps 754 mmHg 57%
    07:00 +27°C° 0 mm 6 mps 754 mmHg 54%
    08:00 +28°C° 0 mm 6 mps 754 mmHg 50%
    09:00 +29°C° 0 mm 6 mps 754 mmHg 45%
    10:00 +30°C° 0 mm 7 mps 754 mmHg 40%
    11:00 +33°C° 0 mm 7 mps 755 mmHg 34%
    12:00 +33°C° 0 mm 7 mps 754 mmHg 33%
    13:00 +34°C° 0 mm 7 mps 754 mmHg 31%
    14:00 +34°C° 0 mm 7 mps 754 mmHg 30%
    15:00 +33°C° 0 mm 7 mps 754 mmHg 31%
    16:00 +33°C° 0 mm 7 mps 754 mmHg 33%
    17:00 +32°C° 0 mm 8 mps 754 mmHg 34%
    18:00 +30°C° 0 mm 7 mps 754 mmHg 40%
    19:00 +28°C° 0 mm 7 mps 754 mmHg 45%
    20:00 +27°C° 0 mm 7 mps 754 mmHg 50%
    21:00 +27°C° 0 mm 7 mps 754 mmHg 52%
    22:00 +26°C° 0 mm 7 mps 754 mmHg 54%
    23:00 +26°C° 0 mm 7 mps 754 mmHg 56%

    Day after tomorrow, 25 August, Friday

    Time Temperature Precipitation Wind Pressure Humidity
    00:00 +26°C° 0 mm 7 mps 754 mmHg 57%
    01:00 +26°C° 0 mm 7 mps 754 mmHg 57%
    02:00 +24°C° 0 mm 7 mps 754 mmHg 58%
    03:00 +24°C° 0 mm 7 mps 753 mmHg 59%
    04:00 +24°C° 0 mm 7 mps 753 mmHg 60%
    05:00 +24°C° 0 mm 8 mps 753 mmHg 61%
    06:00 +26°C° 0 mm 8 mps 753 mmHg 57%
    07:00 +27°C° 0 mm 8 mps 753 mmHg 52%
    08:00 +28°C° 0 mm 8 mps 753 mmHg 48%
    09:00 +30°C° 0 mm 7 mps 754 mmHg 43%
    10:00 +32°C° 0 mm 7 mps 754 mmHg 38%
    11:00 +33°C° 0 mm 7 mps 754 mmHg 33%
    12:00 +34°C° 0 mm 7 mps 754 mmHg 32%
    13:00 +34°C° 0 mm 7 mps 753 mmHg 31%
    14:00 +34°C° 0 mm 7 mps 753 mmHg 30%
    15:00 +33°C° 0 mm 7 mps 753 mmHg 33%
    16:00 +33°C° 0 mm 7 mps 753 mmHg 36%
    17:00 +32°C° 0 mm 7 mps 753 mmHg 39%
    18:00 +30°C° 0 mm 7 mps 753 mmHg 46%
    19:00 +28°C° 0 mm 7 mps 753 mmHg 53%
    20:00 +27°C° 0 mm 7 mps 753 mmHg 60%
    21:00 +27°C° 0 mm 7 mps 753 mmHg 62%
    22:00 +26°C° 0 mm 7 mps 753 mmHg 63%
    23:00 +26°C° 0 mm 7 mps 753 mmHg 65%

    26 August, Saturday

    Time Temperature Precipitation Wind Pressure Humidity
    00:00 +26°C° 0 mm 7 mps 753 mmHg 66%
    01:00 +26°C° 0 mm 7 mps 753 mmHg 67%
    02:00 +26°C° 0 mm 7 mps 752 mmHg 68%
    03:00 +26°C° 0 mm 7 mps 752 mmHg 70%
    04:00 +24°C° 0 mm 7 mps 752 mmHg 71%
    05:00 +24°C° 0 mm 7 mps 752 mmHg 73%
    06:00 +26°C° 0 mm 7 mps 752 mmHg 66%
    07:00 +28°C° 0 mm 7 mps 752 mmHg 60%
    08:00 +29°C° 0 mm 7 mps 752 mmHg 54%
    09:00 +30°C° 0 mm 7 mps 753 mmHg 49%
    10:00 +33°C° 0 mm 6 mps 753 mmHg 44%
    11:00 +34°C° 0 mm 6 mps 753 mmHg 39%
    12:00 +34°C° 0 mm 6 mps 753 mmHg 38%
    13:00 +35°C° 0 mm 6 mps 753 mmHg 38%
    14:00 +35°C° 0 mm 6 mps 753 mmHg 38%
    15:00 +34°C° 0 mm 6 mps 752 mmHg 40%
    16:00 +34°C° 0 mm 6 mps 752 mmHg 42%
    17:00 +33°C° 0 mm 6 mps 752 mmHg 44%
    18:00 +30°C° 0 mm 6 mps 752 mmHg 51%
    19:00 +29°C° 0 mm 6 mps 752 mmHg 59%
    20:00 +27°C° 0 mm 7 mps 752 mmHg 67%
    21:00 +27°C° 0 mm 7 mps 752 mmHg 68%
    22:00 +26°C° 0 mm 7 mps 752 mmHg 70%
    23:00 +26°C° 0 mm 7 mps 752 mmHg 72%

    27 August, Sunday

    Time Temperature Precipitation Wind Pressure Humidity
    00:00 +26°C° 0 mm 7 mps 752 mmHg 72%
    01:00 +26°C° 0 mm 7 mps 752 mmHg 71%
    02:00 +26°C° 0 mm 7 mps 751 mmHg 71%
    03:00 +24°C° 0 mm 7 mps 751 mmHg 72%
    04:00 +24°C° 0 mm 7 mps 751 mmHg 73%
    05:00 +24°C° 0 mm 7 mps 751 mmHg 74%
    06:00 +26°C° 0 mm 7 mps 751 mmHg 69%
    07:00 +27°C° 0 mm 7 mps 751 mmHg 63%
    08:00 +28°C° 0 mm 7 mps 751 mmHg 57%
    09:00 +30°C° 0 mm 7 mps 752 mmHg 51%
    10:00 +32°C° 0 mm 6 mps 752 mmHg 46%
    11:00 +33°C° 0 mm 6 mps 752 mmHg 40%
    12:00 +33°C° 0 mm 6 mps 752 mmHg 40%
    13:00 +34°C° 0 mm 6 mps 751 mmHg 40%
    14:00 +34°C° 0 mm 6 mps 751 mmHg 40%
    15:00 +34°C° 0 mm 6 mps 751 mmHg 42%
    16:00 +33°C° 0 mm 6 mps 751 mmHg 44%
    17:00 +32°C° 0 mm 6 mps 751 mmHg 46%
    18:00 +30°C° 0 mm 6 mps 751 mmHg 53%
    19:00 +28°C° 0 mm 6 mps 751 mmHg 60%
    20:00 +27°C° 0 mm 6 mps 751 mmHg 67%
    21:00 +26°C° 0 mm 6 mps 751 mmHg 68%
    22:00 +26°C° 0 mm 6 mps 751 mmHg 69%
    23:00 +26°C° 0 mm 6 mps 751 mmHg 70%

    28 August, Monday

    Time Temperature Precipitation Wind Pressure Humidity
    00:00 +26°C° 0 mm 7 mps 751 mmHg 69%
    01:00 +24°C° 0 mm 7 mps 750 mmHg 68%
    02:00 +24°C° 0 mm 7 mps 750 mmHg 68%
    03:00 +24°C° 0 mm 7 mps 750 mmHg 68%
    04:00 +24°C° 0 mm 7 mps 750 mmHg 68%
    05:00 +24°C° 0 mm 7 mps 750 mmHg 68%
    06:00 +26°C° 0 mm 7 mps 750 mmHg 65%
    07:00 +27°C° 0 mm 7 mps 750 mmHg 61%
    08:00 +28°C° 0 mm 6 mps 750 mmHg 57%
    09:00 +29°C° 0 mm 6 mps 750 mmHg 52%
    10:00 +32°C° 0 mm 6 mps 750 mmHg 48%
    11:00 +33°C° 0 mm 6 mps 750 mmHg 43%
    12:00 +34°C° 0 mm 6 mps 750 mmHg 42%
    13:00 +34°C° 0 mm 6 mps 750 mmHg 42%
    14:00 +34°C° 0 mm 6 mps 750 mmHg 41%
    15:00 +34°C° 0 mm 6 mps 750 mmHg 42%
    16:00 +34°C° 0 mm 6 mps 749 mmHg 43%
    17:00 +34°C° 0 mm 6 mps 749 mmHg 44%
    18:00 +32°C° 0 mm 6 mps 749 mmHg 51%
    19:00 +29°C° 0 mm 6 mps 750 mmHg 58%
    20:00 +28°C° 0 mm 6 mps 750 mmHg 65%
    21:00 +27°C° 0 mm 6 mps 750 mmHg 67%
    22:00 +27°C° 0 mm 6 mps 750 mmHg 68%
    23:00 +27°C° 0 mm 6 mps 750 mmHg 70%
    Show more